Probability
6 3 6 3 3 6 6 6 3 6 6 10 10 6 6 6 6 6 10 35 58 71 61 45 35 35 29 29 23 26 26 26 29 26 19 23 16 13 10 16 19 23 19
6 6 6 3 3 6 3 3 0 0 3 10 6 6 6 6 6 10 13 16 45 61 65 52 48 39 32 29 29 29 32 32 26 26 23 16 16 16 13 13 10 23 19
10 6 6 6 3 3 0 3 0 0 3 3 3 3 3 3 3 10 10 10 23 39 58 55 48 42 29 26 29 32 35 39 39 29 23 26 19 16 16 10 10 16 16
10 6 6 3 6 0 3 0 0 0 0 0 0 0 0 3 3 3 6 6 10 10 32 42 45 45 39 26 19 19 23 29 32 29 23 23 19 16 16 13 10 13 13
10 6 6 0 0 0 0 0 0 0 0 0 0 0 0 0 0 0 0 0 0 6 6 10 29 35 29 39 26 19 23 29 32 23 13 13 16 19 13 13 13 10 10
16 6 6 3 0 0 0 0 0 0 0 0 0 0 0 0 0 0 0 0 0 0 0 3 13 19 23 32 39 29 19 32 26 19 19 19 10 19 16 13 13 13 6
13 10 6 3 0 0 0 0 0 0 0 0 0 0 0 0 0 0 0 0 0 0 0 0 0 3 6 19 19 29 23 23 19 19 26 23 23 19 10 6 10 3 6
10 3 3 3 0 0 0 0 0 0 0 0 0 0 0 0 0 0 0 0 0 0 0 0 0 0 0 3 3 10 16 19 19 16 16 16 16 19 16 10 3 3 0
6 10 3 6 0 0 0 0 0 0 3 0 0 0 0 0 0 0 0 0 0 0 0 0 0 0 0 0 0 3 6 10 13 26 19 23 19 10 10 13 13 3 0
19 10 6 10 6 3 0 0 0 0 6 6 0 0 0 0 0 0 0 0 0 0 0 0 0 0 0 0 0 0 0 6 6 13 19 19 13 13 10 10 13 10 10
13 19 13 10 16 10 0 0 3 6 6 6 6 3 0 0 0 0 0 0 0 0 0 0 0 0 0 0 0 0 0 0 0 3 6 13 10 13 10 6 10 13 13
19 19 26 13 10 3 10 3 3 6 10 10 6 3 3 3 0 0 0 0 0 0 0 0 0 0 0 0 0 0 0 0 0 0 0 3 3 0 0 0 3 6 10
26 23 26 13 13 10 10 6 13 16 10 6 6 10 6 0 0 0 0 0 0 0 0 0 0 0 0 0 0 0 0 0 0 0 0 0 0 0 0 0 0 0 3
29 23 16 10 10 10 13 16 13 19 19 10 10 10 10 10 0 0 0 0 0 0 0 0 0 0 0 0 0 0 0 0 0 0 0 0 0 0 0 0 0 0 0
26 13 10 10 10 10 13 13 13 13 13 10 10 10 10 3 0 0 0 0 3 3 3 3 0 0 0 0 0 0 0 0 0 0 0 0 0 0 0 0 0 0 0
23 19 10 10 10 10 16 16 13 13 10 13 10 10 6 6 3 3 3 3 3 3 3 3 3 3 3 0 0 0 0 0 0 0 0 0 0 0 0 0 0 0 0
16 16 16 13 13 16 16 16 13 13 13 13 13 10 6 10 3 3 3 3 3 3 3 3 3 3 3 3 3 3 0 0 0 0 0 0 0 0 0 0 0 0 0
19 16 16 19 19 19 16 16 13 13 13 13 16 13 6 6 6 3 3 3 3 3 3 3 3 3 3 3 3 3 3 0 0 0 0 0 0 0 0 0 0 0 0
16 23 19 19 16 16 16 16 13 13 13 16 16 10 10 6 6 3 3 3 3 3 3 3 3 3 3 3 3 3 3 3 3 0 0 0 0 0 0 0 0 0 0
16 19 16 13 13 13 19 19 16 16 10 13 6 6 6 6 6 6 3 3 3 3 3 3 3 3 3 3 3 3 3 3 3 3 3 0 0 0 0 0 0 0 0
19 19 19 19 19 19 19 19 19 19 13 10 10 6 6 6 6 6 6 3 3 3 3 3 3 3 3 3 3 3 3 3 3 3 3 3 3 3 0 0 0 0 0
19 19 19 19 19 19 19 13 16 19 16 13 10 10 10 6 6 3 3 3 3 3 3 3 3 3 3 3 3 3 3 3 3 3 3 3 3 3 3 3 0 0 0
16 19 19 19 19 16 16 6 3 13 10 10 10 10 10 6 6 6 3 0 0 0 3 3 3 3 3 3 3 3 3 3 3 3 3 3 3 3 3 3 0 0 0
13 19 19 19 13 13 10 0 0 3 10 10 10 10 10 6 6 6 6 3 3 3 3 3 3 3 3 3 3 3 3 3 3 3 3 3 3 3 3 3 0 0 0
16 16 13 13 13 13 6 0 0 0 3 10 10 10 6 6 6 3 6 6 3 3 3 0 3 3 3 0 3 3 3 3 3 3 3 3 3 0 0 0 0 0 0
19 10 10 10 10 10 6 0 0 0 6 6 10 6 3 3 6 0 3 6 6 6 3 3 0 0 0 0 0 0 3 3 3 3 3 0 0 0 0 0 0 0 0
Height
5897 5897 5898 5898 5898 5899 5899 5900 5900 5901 5901 5901 5901 5902 5902 5902 5901 5901 5901 5901 5900 5900 5900 5899 5899 5899 5898 5898 5897 5897 5897 5896 5896 5895 5895 5895 5894 5894 5894 5894 5894 5893 5893
5898 5898 5898 5899 5899 5899 5900 5900 5900 5901 5901 5901 5902 5902 5902 5902 5901 5901 5901 5901 5900 5900 5899 5899 5899 5898 5898 5897 5897 5896 5896 5895 5895 5894 5894 5893 5893 5893 5893 5892 5892 5892 5892
5898 5899 5899 5899 5899 5899 5900 5900 5901 5901 5901 5901 5901 5902 5902 5901 5901 5901 5901 5900 5900 5899 5899 5898 5898 5897 5897 5896 5896 5895 5894 5894 5893 5893 5892 5892 5891 5891 5891 5891 5890 5890 5890
5899 5899 5899 5899 5899 5899 5900 5900 5900 5901 5901 5901 5901 5901 5901 5900 5900 5900 5900 5900 5899 5899 5898 5898 5897 5896 5896 5895 5894 5894 5893 5892 5891 5891 5891 5890 5889 5889 5889 5888 5888 5888 5887
5900 5899 5899 5899 5899 5900 5900 5900 5900 5900 5900 5900 5900 5900 5900 5900 5899 5899 5899 5898 5898 5898 5897 5896 5896 5895 5894 5893 5893 5892 5891 5890 5889 5889 5888 5888 5887 5887 5886 5886 5886 5885 5885
5900 5900 5899 5899 5899 5899 5899 5899 5899 5899 5899 5899 5899 5899 5899 5899 5898 5898 5897 5897 5896 5896 5895 5895 5894 5893 5893 5892 5891 5890 5889 5888 5887 5887 5886 5886 5885 5884 5884 5883 5883 5882 5882
5900 5900 5899 5899 5899 5899 5899 5899 5898 5898 5898 5898 5898 5898 5898 5897 5897 5896 5896 5895 5895 5894 5893 5893 5892 5891 5890 5890 5889 5888 5887 5886 5885 5884 5883 5883 5882 5881 5880 5880 5879 5879 5878
5901 5900 5899 5899 5898 5898 5898 5898 5898 5897 5897 5897 5897 5896 5896 5896 5895 5895 5894 5893 5893 5892 5891 5891 5890 5889 5888 5887 5886 5885 5884 5883 5882 5881 5880 5879 5878 5878 5877 5876 5875 5875 5874
5900 5900 5899 5899 5898 5898 5897 5897 5897 5896 5896 5895 5895 5895 5895 5894 5893 5893 5892 5891 5891 5890 5889 5888 5887 5886 5885 5884 5883 5882 5881 5880 5878 5877 5876 5875 5874 5873 5873 5872 5871 5870 5869
5900 5899 5898 5898 5897 5897 5896 5896 5895 5895 5894 5893 5893 5893 5893 5892 5891 5890 5890 5889 5888 5887 5886 5885 5884 5884 5882 5881 5880 5878 5877 5876 5875 5874 5872 5872 5871 5869 5868 5868 5867 5866 5864
5899 5898 5897 5896 5896 5895 5895 5894 5894 5893 5892 5891 5891 5890 5890 5889 5888 5888 5887 5886 5886 5884 5883 5882 5881 5880 5879 5878 5877 5875 5874 5872 5871 5870 5868 5868 5866 5865 5864 5863 5862 5861 5859
5898 5897 5896 5895 5895 5894 5893 5892 5892 5891 5890 5889 5889 5888 5887 5886 5885 5884 5884 5883 5882 5882 5880 5879 5878 5877 5876 5874 5873 5871 5870 5868 5867 5865 5864 5863 5862 5860 5859 5858 5857 5855 5854
5897 5896 5895 5894 5893 5892 5891 5890 5889 5888 5888 5887 5886 5885 5884 5883 5882 5881 5881 5880 5879 5878 5877 5876 5875 5873 5872 5870 5869 5867 5866 5864 5863 5861 5859 5858 5856 5855 5854 5853 5851 5850 5848
5895 5894 5893 5892 5891 5890 5889 5888 5887 5886 5885 5884 5883 5882 5881 5880 5879 5878 5877 5876 5875 5874 5873 5872 5871 5869 5868 5866 5865 5863 5861 5860 5858 5856 5855 5853 5851 5850 5848 5847 5845 5844 5842
5894 5892 5891 5890 5889 5887 5886 5885 5884 5883 5882 5881 5880 5879 5878 5877 5876 5874 5873 5872 5871 5870 5869 5868 5866 5865 5863 5862 5860 5859 5857 5855 5853 5851 5850 5848 5846 5844 5842 5840 5839 5837 5835
5892 5890 5888 5887 5886 5884 5884 5883 5882 5881 5880 5879 5878 5876 5875 5874 5872 5871 5870 5868 5867 5866 5865 5863 5862 5860 5859 5857 5856 5854 5852 5850 5848 5846 5844 5842 5840 5838 5836 5834 5832 5830 5828
5889 5887 5886 5885 5883 5882 5881 5880 5879 5878 5877 5876 5874 5873 5872 5870 5869 5867 5865 5864 5863 5861 5860 5859 5857 5855 5854 5853 5851 5849 5847 5845 5843 5841 5839 5837 5834 5832 5830 5828 5825 5823 5821
5887 5885 5884 5882 5881 5880 5878 5877 5876 5875 5874 5873 5871 5870 5868 5867 5865 5863 5861 5860 5858 5857 5855 5854 5852 5851 5849 5847 5846 5844 5842 5839 5837 5835 5833 5830 5828 5826 5823 5821 5818 5816 5813
5885 5883 5882 5880 5879 5878 5876 5875 5874 5872 5871 5869 5868 5866 5864 5862 5861 5859 5857 5855 5854 5852 5850 5849 5848 5846 5844 5842 5840 5838 5836 5834 5831 5829 5826 5824 5821 5819 5816 5814 5811 5808 5805
5884 5882 5880 5879 5877 5876 5874 5872 5871 5869 5867 5866 5864 5862 5861 5859 5857 5855 5853 5852 5849 5848 5846 5844 5843 5841 5839 5837 5835 5832 5830 5828 5825 5822 5819 5816 5814 5812 5809 5806 5803 5800 5798
5883 5881 5879 5877 5875 5873 5872 5870 5868 5866 5865 5863 5861 5859 5857 5855 5853 5851 5849 5847 5845 5843 5841 5839 5838 5836 5833 5831 5829 5826 5824 5821 5818 5815 5812 5810 5807 5804 5801 5798 5795 5792 5789
5880 5878 5876 5874 5872 5870 5869 5867 5865 5863 5861 5859 5857 5855 5853 5851 5849 5847 5844 5842 5840 5838 5836 5834 5832 5830 5827 5825 5822 5820 5817 5814 5811 5809 5805 5802 5799 5796 5793 5790 5787 5784 5781
5878 5875 5873 5871 5869 5867 5865 5863 5861 5859 5857 5855 5853 5851 5849 5847 5844 5842 5840 5838 5835 5833 5831 5829 5827 5824 5822 5819 5816 5814 5811 5807 5804 5801 5798 5795 5791 5788 5785 5782 5779 5776 5773
5874 5872 5870 5868 5866 5864 5862 5860 5858 5856 5853 5851 5849 5846 5844 5842 5840 5838 5835 5833 5830 5828 5826 5824 5821 5819 5816 5813 5810 5807 5804 5801 5797 5794 5791 5787 5784 5781 5777 5774 5771 5768 5765
5871 5868 5866 5865 5863 5861 5859 5856 5854 5851 5849 5847 5844 5842 5840 5838 5836 5833 5831 5828 5826 5823 5820 5818 5815 5813 5810 5807 5804 5801 5797 5794 5790 5786 5783 5780 5776 5773 5770 5766 5763 5760 5757
5866 5864 5862 5861 5859 5857 5855 5852 5850 5847 5845 5842 5840 5838 5835 5833 5831 5828 5826 5823 5821 5818 5815 5813 5810 5807 5804 5801 5797 5794 5791 5787 5783 5779 5775 5772 5768 5765 5762 5759 5755 5752 5749
Wind_Speed
5 4 4 3 4 3 4 4 3 3 3 2 2 2 2 2 2 2 2 2 2 2 2 3 3 3 3 3 3 2 2 2 3 3 3 4 4 5 6 6 6 6 7
4 3 3 2 2 2 2 2 2 2 1 1 1 1 1 2 2 2 2 2 3 3 3 3 4 4 5 5 4 5 5 5 5 5 5 5 5 6 7 7 7 8 8
3 2 2 1 1 1 2 2 2 1 1 1 1 2 2 3 3 3 4 4 4 5 5 5 6 6 6 7 7 7 7 7 7 6 7 7 7 7 8 8 8 9 9
3 2 1 0 0 1 1 2 2 2 2 3 3 3 4 4 4 4 5 5 6 6 6 7 8 8 8 8 8 8 9 9 9 8 9 9 9 9 9 9 10 10 11
2 1 1 1 1 1 2 2 3 3 3 4 4 4 5 5 5 5 6 6 7 8 8 8 8 9 9 10 10 10 11 10 10 10 10 10 10 11 10 10 11 11 12
2 1 2 2 2 2 2 3 4 4 5 5 6 6 6 6 6 7 8 8 8 9 9 9 9 10 10 10 11 10 11 10 11 11 11 11 12 13 12 12 13 14 14
2 2 3 2 2 3 3 4 4 5 6 6 7 7 7 7 8 8 8 9 9 10 10 10 10 10 11 11 12 12 12 12 12 13 13 13 13 13 13 14 15 15 15
3 4 4 3 3 4 4 5 5 5 6 7 7 8 8 9 9 10 10 10 10 10 11 11 11 11 12 13 13 13 13 14 14 14 14 15 15 15 15 15 16 16 17
4 5 5 5 5 5 6 6 6 6 7 7 7 8 9 10 10 11 10 10 10 11 11 12 12 12 13 13 13 14 15 15 15 15 15 15 16 16 17 17 17 18 19
5 6 6 7 6 6 7 7 8 9 9 9 8 9 10 10 11 11 12 12 12 12 13 13 13 13 13 14 15 15 15 16 16 16 16 16 16 17 17 18 19 20 21
7 7 7 7 7 7 8 8 9 9 10 10 10 10 10 11 11 11 12 13 14 14 14 13 13 14 14 15 16 16 16 16 17 17 17 18 18 19 19 20 21 22 22
7 7 7 7 8 8 9 10 10 10 11 11 11 11 11 11 12 12 13 14 14 14 14 14 14 14 15 16 17 17 17 17 17 18 19 20 20 20 20 21 22 23 23
9 8 8 9 10 10 10 11 11 11 11 11 11 12 12 12 13 13 14 15 15 15 16 16 16 16 16 17 18 18 18 18 19 20 21 21 21 21 21 22 23 24 24
10 10 10 11 11 11 11 11 12 12 12 12 13 13 13 13 14 14 15 15 16 16 17 17 17 17 18 18 18 19 19 20 20 21 22 21 21 22 23 23 24 25 26
12 11 11 11 12 12 12 13 13 13 13 13 13 13 14 14 15 15 15 15 15 15 16 17 18 19 19 19 19 19 20 21 21 22 22 22 23 23 24 25 25 26 27
13 13 12 12 13 13 13 13 12 12 12 13 13 13 14 15 15 15 16 16 16 17 17 17 19 19 19 19 20 20 21 22 22 23 24 24 24 24 25 26 27 28 28
13 13 13 12 12 13 13 13 12 12 13 14 14 15 15 16 16 17 17 17 17 18 19 19 20 20 20 20 20 21 22 23 23 23 24 24 25 25 26 27 28 29 29
13 13 14 13 13 13 13 13 13 13 13 14 15 15 16 17 17 16 17 17 18 19 19 19 20 20 20 21 21 22 23 24 24 24 25 25 25 26 27 27 29 29 30
13 12 13 13 12 12 12 12 12 13 14 15 16 16 17 17 17 17 17 18 19 19 19 19 20 20 21 22 23 24 24 25 25 25 26 26 26 27 28 29 30 30 30
13 13 13 12 12 12 13 13 13 14 14 14 15 15 16 16 16 17 18 18 19 20 20 20 20 21 22 23 24 24 25 26 27 27 27 27 27 28 29 30 30 30 31
14 14 13 13 13 14 13 13 14 14 15 15 16 17 17 17 18 19 19 20 20 20 21 21 21 22 23 24 25 26 26 27 27 27 27 28 28 29 30 30 30 30 31
15 15 15 14 14 14 14 15 15 15 16 17 17 18 19 19 19 20 20 21 20 20 21 22 22 23 24 25 25 26 26 27 27 27 28 29 29 29 29 29 30 30 31
17 16 16 15 15 15 15 16 16 17 18 18 18 19 19 19 19 19 20 20 20 21 21 22 23 23 24 24 25 26 26 27 27 28 28 29 30 30 29 29 30 31 31
17 17 16 16 16 16 17 17 18 19 19 19 19 19 19 19 19 20 20 20 20 21 22 22 22 23 24 25 26 27 27 28 29 29 29 29 29 30 30 30 30 30 30
18 17 16 17 17 17 18 18 18 19 20 20 20 20 19 19 19 20 20 20 21 21 22 23 24 24 25 26 27 27 28 28 28 29 29 30 30 30 30 30 30 30 30
19 18 17 17 17 18 18 18 19 20 20 21 20 20 20 20 20 20 21 21 22 22 23 23 24 25 26 26 26 27 28 28 29 29 29 29 29 30 30 30 30 30 30
Wind_Direction
99 94 96 110 122 126 129 131 126 121 117 111 96 81 75 58 42 20 11 6 2 4 2 355 349 344 337 332 326 319 316 309 298 298 295 291 288 289 287 289 289 286 283
87 82 86 104 136 150 159 152 149 149 141 96 36 17 10 4 351 343 332 327 328 334 332 322 319 316 314 309 308 302 299 297 294 292 287 281 282 286 285 286 283 280 282
83 78 89 115 173 205 198 205 211 223 237 255 274 295 312 318 321 320 312 301 301 309 313 311 309 303 301 299 299 297 289 289 287 287 285 285 284 284 286 287 286 283 282
77 71 76 89 223 241 234 230 238 246 264 275 280 286 289 290 297 306 303 299 299 302 303 302 306 306 301 299 297 292 288 284 281 284 284 287 288 287 286 285 285 284 281
74 57 34 332 281 242 245 256 257 262 277 286 289 287 284 291 293 297 300 299 298 298 302 302 301 301 300 298 295 293 291 291 284 282 280 283 285 284 282 282 283 284 282
49 20 335 313 299 280 268 262 265 266 281 288 287 286 287 288 290 293 296 294 292 294 297 298 295 297 300 300 299 296 294 290 286 287 285 285 285 284 281 281 282 282 282
9 349 337 320 304 292 281 280 279 275 279 282 283 282 283 284 288 292 293 294 293 291 292 294 295 294 299 298 301 298 293 288 286 286 282 283 284 283 282 281 282 284 282
339 328 324 321 300 290 285 287 288 283 283 283 284 281 279 280 284 289 289 291 291 291 291 294 295 295 296 294 296 296 296 292 285 286 284 281 280 279 281 282 281 281 282
320 317 313 307 293 286 285 286 287 288 287 286 286 285 284 284 284 286 286 286 286 288 292 291 291 295 295 295 296 295 292 293 288 285 284 284 284 282 283 284 285 283 282
316 310 308 305 294 282 284 287 287 288 292 287 286 289 288 284 285 283 284 285 288 288 290 290 287 288 293 294 295 295 295 292 288 286 283 282 282 284 282 284 287 288 287
312 308 306 305 304 293 288 288 289 290 291 290 287 287 289 285 286 284 283 283 286 288 292 292 288 289 292 291 293 294 295 294 291 289 288 285 283 284 283 283 284 285 286
314 308 304 304 304 299 295 292 289 290 291 290 290 289 287 286 286 285 285 284 287 288 291 294 291 292 293 293 292 293 294 293 292 290 288 288 285 285 284 283 284 285 285
315 311 306 303 302 299 297 298 295 294 293 293 293 294 291 289 287 286 285 284 286 286 287 289 288 290 293 294 293 293 293 294 291 289 288 288 287 286 285 285 286 285 286
312 305 301 299 300 297 296 297 296 294 293 293 293 295 295 293 290 289 288 286 285 285 286 288 288 290 292 292 294 293 294 294 293 290 290 291 291 290 288 288 288 288 288
316 306 299 298 298 295 294 293 293 291 290 291 290 292 294 294 290 291 290 288 288 288 287 287 289 291 291 290 292 293 294 294 293 292 291 291 292 290 290 291 291 290 290
315 308 301 299 300 298 296 294 294 293 291 291 292 292 292 295 295 291 291 291 289 289 289 288 289 292 290 290 291 293 294 294 292 292 292 292 292 291 290 291 290 289 289
315 309 304 302 301 300 296 295 295 295 292 292 294 293 294 297 298 297 291 290 290 290 289 288 291 292 291 291 292 294 296 296 295 294 294 294 292 292 291 290 291 292 292
316 311 306 302 302 304 301 297 295 296 295 294 295 296 295 296 297 299 297 297 297 294 292 291 293 294 294 295 297 298 297 297 298 297 295 294 294 293 292 293 293 293 294
324 320 315 307 306 307 306 305 303 300 297 296 296 297 296 298 300 299 301 301 300 299 296 296 295 295 294 296 298 299 299 299 298 298 298 297 296 296 295 294 295 295 294
324 321 318 313 312 309 308 307 306 305 303 302 301 300 300 301 303 303 301 301 300 300 299 299 296 296 297 297 298 299 300 301 300 299 298 298 299 298 297 297 296 296 296
322 320 317 314 312 310 308 309 308 307 306 305 303 302 301 301 301 302 302 301 300 300 301 299 297 298 300 299 300 299 300 301 301 302 299 298 299 299 300 299 299 298 297
318 315 314 313 311 310 308 308 307 307 306 305 304 304 303 301 301 301 301 301 301 301 301 299 298 298 299 300 302 303 303 303 302 302 302 300 300 300 300 300 300 299 298
313 312 312 311 310 308 308 308 308 306 306 306 306 304 303 301 302 303 303 304 305 304 304 301 301 301 300 301 303 305 305 305 303 302 301 301 301 300 300 300 301 301 301
310 309 310 310 311 309 308 308 307 307 306 307 306 304 303 303 303 306 306 306 307 307 306 306 306 304 303 303 304 304 305 305 304 303 302 302 302 301 301 301 302 303 302
308 308 308 309 309 309 307 307 306 307 307 307 307 306 305 305 306 306 306 306 305 306 306 307 307 306 306 305 305 306 307 308 305 304 304 303 303 302 302 302 303 303 302
308 307 308 309 309 308 306 306 306 307 307 307 307 307 307 307 306 307 306 307 306 307 307 307 307 307 308 307 307 307 308 309 308 306 306 306 305 304 303 304 303 302 301